Погода в Карауле

Погода в Карауле : погода сейчас, прогноз погоды и архив. Всё, что Вы хотите узнать о погоде в Карауле!

Поиск расширенной информации на нашем сайте:

Другие новости

Новости СМИ2

Главная страница сайта

Новости сайта

03.07.2017

Напоминаем, что на нашем специализированном сайте Метеоцентр.Азия вы можете получить высокодетализированные автоматические прогнозы погоды по пунктам России, СНГ и мира в авиационном формате (включающие направление и скорость ветра, видимость, явления погоды, количество и форму облачности, нижнюю и верхнюю границу облачности).


Погода в Карауле - сегодня

Время (UTC), дата Ветер
(°,м/с) 
Видим.   Явления Облачность Т
(°С)
Тd
(°С)
f(%) Тe
(°С)
Pmin
(гПа)
dP
(гПа)
Po
(мм)
O2
(г/м3)
Тmin Tmax R s Состояние
почвы
00 20.09.17 020 (С) 20000 м    10/10 300 м 
[Sc]
+1 +0.2 94 1023  765  307  +0.8         
03 20.09.17 320 (СЗ) 20000 м    10/10 300 м 
[St]
+1.2 +0.1 92 1021  -2.1  763  306  +0         
06 20.09.17 260 (З) 20000 м    10/10 300 м 
[St]
+1.5 -0.2 88 -1  1020.2  -0.8  762  306           
09 20.09.17 250 (З) 7-10{10}  20000 м    10/10 300 м 
[Sc]
+1.7 +0.1 89 -2  1019.4  -0.8  762  305           
12 20.09.17 290 (З) 7{12}  20000 м    9/9 300 м 
[Sc]
+1.4 -1.5 81 -2  1018.6  -0.8  761  305    +1.8       
15 20.09.17 270 (З) 20000 м  {дождь}  9/9 300 м 
[Sc]
+0.5 -2.5 80 -3  1018.4  -0.1  761  306           
18 20.09.17 270 (З) 10 км  слаб. ливневой дождь со снегом  10/10 300 м кучево-дожд. 
[Cb cap]
+0.3 -0.8 92 -3  1016.6  -1.8  760  306           
21 20.09.17 360 (С) 20000 м  {ливн. осадки}  10/10 300 м кучево-дожд. 
[Cb cap]
+0.1 -0.8 94 -3  1014.4  -2.2  758  305           
00 21.09.17 360 (С) 20000 м  {ливн. осадки}  9/8 300 м кучево-дожд., средняя 
[Cb cap|Ac trans]
-1.2 -2.5 91 -2  1016.9  2.5  760  308  -1.5    <0.5  равномерный
мокрый или
старый снег
100% 
03 21.09.17 360 (С) 20000 м    9/9 300 м 
[Sc]
-0.6 -2.1 90 -4  1017.8  0.9  761  307           
06 21.09.17 360 (С) 20000 м    9/9 300 м 
[Sc]
+1.1 -5.3 62 -2  1018.3  0.5  761  306           
09 21.09.17 350 (С) 20000 м  {ливн. осадки}  9/9 300 м кучево-дожд. 
[Cb cap]
+1.2 -0.5 88 -2  1018.4  0.1  761  305           
12 21.09.17 360 (С) 20000 м  осадки на расстоянии{ливн. осадки}  9/9 300 м кучево-дожд. 
[Cb cap]
+0.7 -0.1 94 -3  1019.2  0.7  762  306    +1.2  0.1     
15 21.09.17 360 (С) 20000 м  {ливн. осадки}  9/9 300 м 
[Sc]
-0.1 -1.2 92 -3  1019.5  0.3  762  307           
18 21.09.17 360 (С) 20000 м  {ливн. осадки}  4/4 300 м 
[Sc]
+0.1 -1 92 -3  1019.5  762  307           
21 21.09.17 340 (С) 20000 м    10/10 300 м 
[Sc]
+0.9 -2 81 -2  1019.5  762  306           
00 22.09.17 340 (С) 20000 м    10/10 300 м 
[Sc]
+0.8 -1.8 83 -3  1019.7  0.2  762  306  -0.3    0.2  <0.5  мокрый или
старый снег
50-90% 
03 22.09.17 340 (С) 7-10{10}  20000 м    9/8 300 м средняя 
[Cu hum|Ac trans]
+0.8 -0.9 88 -3  1020.3  0.6  762  306           
06 22.09.17 340 (С) 7-10{11}  20000 м  осадки на расстоянии  9/9 300 м кучево-дожд. 
[Cb cap]
+1.4 -1.5 81 -2  1020.7  0.4  763  306           
09 22.09.17 340 (С) 7{10}  4000 м  слаб. ливневой дождь со снегом  9/8 300 м кучево-дожд., средняя 
[Cb cap|Ac trans]
+2.8 -1.1 75 -1  1021.4  0.8  763  305           
12 22.09.17 340 (С) 20000 м  в посл. час ливневой дождь  8/8 300 м кучево-дожд. 
[Cb cap]
+0.6 -0.2 94 -2  1023  1.5  764  307    +2.8     
15 22.09.17 020 (С) 20000 м  в посл. час ливневой дождь  9/9 300 м кучево-дожд. 
[Cb cap]
-0.5 -1.7 92 -2  1024.1  1.1  765  309           
18 22.09.17 020 (С) 20000 м  слаб. ливневой снег  9/9 300 м кучево-дожд. 
[Cb cap]
-1.2 -1.9 95 -1  1025  0.9  766  310           
21 22.09.17 320 (СЗ) 20000 м    9/9 300 м 
[Sc]
+0.2 -0.9 92 -2  1025.4  0.4  766  309           
00 23.09.17 340 (С) 20000 м    9/9 300 м 
[Sc]
+0.6 -0.8 90 -1  1026.3  0.9  767  308  -1.4    0.4  <0.5  мокрый или
старый снег
50-90% 
Время (UTC), дата Ветер
(°,м/с) 
Видим.   Явления Облачность Т
(°С)
Тd
(°С)
f(%) Тe
(°С)
Pmin
(гПа)
dP
(гПа)
Po
(мм)
O2
(г/м3)
Тmin Tmax R s Состояние
почвы

Для получения пояснительной информации подведите курсор к названию столбца.

ПОГОДА в Карауле - архив

Всё, что Вы хотите узнать о погоде в Карауле - удобно и подробно!

Выберите нужную дату (начиная с 1 января 2015* года) и нажмите кнопку "Найти".
Будут отображены архивные сводки погоды по пункту Караул, начиная с указанной даты.


Отображать данные в формате CSV (для использования в таблицах Excel)


Внимание! Наш архив погоды предназначен исключительно для личного некоммерческого использования в познавательных целях. Если Вам необходимы официальные справки о состоянии погоды (для производственных, юридических, коммерческих и т.п. целей), обращайтесь в органы Росгидромета.

*Примечание: данная дата относится к архиву по метеостанциям СССР (Россия, СНГ, Балтия).
Архив по метеостанциям Зарубежной Европы и Азии (кроме Китая) хранится 10 дней, по другим регионам земного шара (Китай, Африка, Америка, Австралия, Океания) - 1 день.

Караул - район местоположения метеостанции


Название, широта, долгота, высота метеостанции:
Караул 70.2°ш. 83.1°д. 29 м над ур. моря [Российская Федерация]

Дополнительная информация

В oтличие oт бoльшинства пoгoдных сайтoв мы публикуем пoдрoбную метеoинфoрмацию в детальнoм прoфессиoнальнoм фoрмате.

Характеристики температуры и влажнoсти вoздуха измеряются на высoте 2 м в тени вдали oт зданий и деревьев.
Скoрoсть ветра измеряется на высoте 10 м (на урoвне рoста челoвека скoрoсть ветра ниже в 1.5-2 раза). Если метеoстанция нахoдится в гoрoде или в лесу, тo скoрoсть ветра занижена на 2-4 м/с пo сравнению с oткрытым местoм. Скoрoсть ветра над акватoриями крупных рек и oзёр, а также на вершинах хoлмoв на 2-5 м/с выше, чем в oбычных услoвиях.
Атмoсфернoе давление в разных тoчках местнoсти мoжет значительнo oтличаться oт давления на метеoстанции, в зависимoсти oт услoвий рельефа (при пoдъёме на 10 м давление пoнижается примернo на 1 мм рт.ст.).